Regional Weather Roundup
Issued by NWS

Home | Current Version | Previous Version | Text Only | Print | Product List | Glossary Off
Versions: 1 2 3 4 5 6 7 8 9 10 11 12 13 14 15 16 17 18 19 20 21 22 23 24 25 26 27 28 29 30 31 32 33 34 35 36 37 38 39 40 41 42 43 44 45 46 47 48 49 50

000
ASUS45 KBOU 220607
RWRCO

WEATHER ROUNDUP FOR COLORADO
NATIONAL WEATHER SERVICE DENVER/BOULDER CO
1200 AM MDT MON SEP 22 2014

NOTE: "FAIR" INDICATES FEW OR NO CLOUDS BELOW 12000 FEET WITH NO
SIGNIFICANT WEATHER AND/OR OBSTRUCTIONS TO VISIBILITY.

COZ001>005-013-030-031-220700-
...NORTHWEST COLORADO...

CITY           SKY/WX    TMP DP  RH WIND       PRES   REMARKS
CRAIG          MOCLDY    55  51  86 NE6       30.28F
HAYDEN         CLOUDY    54  50  87 E13       30.31F
MEEKER         CLOUDY    57  51  80 SE3       30.27F
MOUNT WERNER   NOT AVBL
STEAMBOAT SPGS CLOUDY    53  51  93 SE5       30.36F
WALDEN         MOCLDY    43  37  81 S6        30.42R
$$

COZ006>008-011-220700-
...WEST CENTRAL VALLEYS...

CITY           SKY/WX    TMP DP  RH WIND       PRES   REMARKS
GRAND JUNCTION CLOUDY    60  57  89 SW7       30.19F
MONTROSE       LGT RAIN  61  57  87 E9        30.30S
EAGLE          CLOUDY    55  55 100 NE3       30.37F
RIFLE          MOCLDY    59  57  93 N5        30.25F
DELTA          RAIN      62  59  88 NE5       30.26S
NUCLA          CLOUDY    59  55  88 E8        30.33F
$$

COZ017>023-064>068-220700-
...SOUTHWEST COLORADO...

CITY           SKY/WX    TMP DP  RH WIND       PRES   REMARKS
DURANGO        MOCLDY    62  53  72 CALM      30.34S
CORTEZ         LGT RAIN  61  59  93 N5        30.28F
PAGOSA SPRINGS DRIZZLE   60  49  66 CALM      30.42S
TELLURIDE      NOT AVBL
WOLF CREEK PAS CLOUDY    41  41 100 SW12G18   30.66S
$$

COZ009-010-012-014-032>034-037-058>063-220700-
...CENTRAL COLORADO...

CITY           SKY/WX    TMP DP  RH WIND       PRES   REMARKS
ASPEN          CLOUDY    52  50  93 S3        30.39F
BUENA VISTA    CLOUDY    55  52  92 E5        30.45S
COPPER MTN     DRIZZLE   46  37  71 S16       30.65S
BERTHOUD PASS  CLOUDY    36  34  93 SE18      30.70R FOG
COTTONWOOD PAS CLOUDY    52  50  93 SE15      30.54F FOG
GUNNISON       MOCLDY    59  45  58 E9        30.39S
KREMMLING      RAIN      50  46  87 SE9       30.42S
LEADVILLE      CLOUDY    47  46  97 CALM      30.52S
MONARCH PASS   DRZL/FOG  43  41  93 S6        30.77S VSB 1/4
SALIDA         CLOUDY    57  54  87 SE6       30.49F
SUNLIGHT       LGT RAIN  46  46 100 SE3       30.57S
WILKERSON PASS NOT AVBL
$$

COZ069>075-220700-
...SAN LUIS VALLEY/SANGRE DE CRISTO MOUNTAINS...

CITY           SKY/WX    TMP DP  RH WIND       PRES   REMARKS
ALAMOSA        MOCLDY    57  47  69 SE6       30.40S
LA VETA PASS   CLOUDY    46  43  87 CALM      30.58S
SAGUACHE       NOT AVBL
$$

COZ035-036-038>040-220700-
...NORTHERN COLORADO FRONT RANGE...

CITY           SKY/WX    TMP DP  RH WIND       PRES   REMARKS
DENVER INTL AP CLOUDY    61  55  81 S16       30.29F
DMNS CITY PARK   N/A     58  56  94 S6        30.28F
AURORA         CLOUDY    59  54  84 S14       30.31F
FRONT RANGE AP CLOUDY    61  52  72 S13G18    30.30F
ERIE MUNI ARPT NOT AVBL
BOULDER MUN AP MOCLDY    59  54  82 SE3       30.27F
CENTENNIAL     MOCLDY    59  52  77 S17       30.31F
BROOMFIELD     MOCLDY    59  54  82 S5        30.31F
FORT COLLINS   MOCLDY    59  46  63 CALM      30.29S
LONGMONT       MOCLDY    59  53  81 CALM      30.29F
$$

COZ041-046-047-076>085-087-088-220700-
...PIKES PEAK/PALMER DIVIDE AND SOUTHERN FOOTHILLS...

CITY           SKY/WX    TMP DP  RH WIND       PRES   REMARKS
COLO. SPRINGS  CLOUDY    62  40  44 SE9       30.40F
A. F. ACADEMY  CLOUDY    60  40  48 SE13      30.40S
ELLICOTT       NOT AVBL
FALCON         CLOUDY    57  39  50 SE14      30.44S
FORT CARSON    CLOUDY    62  43  49 S3        30.38S
LIMON          PTCLDY    53  39  59 SE9       30.36F
MONUMENT HILL  MOCLDY    54  37  54 S16G24    30.39F
TRINIDAD       MOCLDY    61  55  81 S8        30.36S
$$

COZ042>045-048>051-090-091-220700-
...NORTHEAST COLORADO...

CITY           SKY/WX    TMP DP  RH WIND       PRES   REMARKS
GREELEY ARPT   MOCLDY    61  48  63 SW8       30.28R
AKRON          CLOUDY    60  41  49 SE13      30.32S
BURLINGTON     CLOUDY    59  39  47 SE9       30.33F
WRAY           CLOUDY    65  40  39 SE10      30.31R
STERLING       CLOUDY    66  43  42 S12G21    30.28S
HOLYOKE        MOCLDY    59  45  58 SE8       30.30F
FORT MORGAN    MOCLDY    60  39  46 S10       30.31S
$$

COZ086-089-092>099-220700-
...SOUTHEAST COLORADO...

CITY           SKY/WX    TMP DP  RH WIND       PRES   REMARKS
PUEBLO         MOCLDY    64  46  52 E10       30.31R
LA JUNTA       MOCLDY    63  42  46 E10       30.31S
LAMAR          PTCLDY    60  41  49 SE9       30.30S
SPRINGFIELD      N/A     56  44  64 S9        30.34F
$$


USA.gov is the U.S. government's official web portal to all federal, state and local government web resources and services.